Temperature
21 21 21 21 21 20 21 21 21 21 21 21 20 20 20 20 20 20 20 20 19 19 19 19 20 20 19 19 19 19 19 19 19 18 18 18 18 18 19 18 18 18 18
22 21 21 21 21 21 21 21 21 21 21 21 21 21 21 20 20 20 20 20 20 19 19 19 20 20 20 20 20 20 20 19 19 19 19 19 18 18 19 19 18 18 18
23 22 21 21 21 21 21 21 21 21 21 21 21 21 21 21 21 20 20 20 20 20 20 20 20 20 20 21 21 20 20 20 19 19 19 19 19 19 19 19 19 18 18
23 22 22 22 21 21 21 21 21 21 21 21 21 21 21 21 21 21 21 21 21 20 20 20 20 21 21 21 21 21 20 20 20 19 19 19 19 19 19 19 19 19 19
24 23 22 22 21 21 21 21 21 21 21 21 21 21 21 21 21 21 21 21 21 21 21 21 21 21 21 21 21 21 20 20 19 19 19 19 19 18 19 19 19 19 19
24 23 22 22 22 21 21 21 21 21 21 21 21 21 21 21 21 21 21 20 20 20 20 20 20 20 20 20 20 20 20 20 19 18 19 19 19 18 18 19 19 19 19
24 23 23 22 22 22 21 21 21 21 21 21 21 20 20 20 20 20 20 20 20 20 20 20 20 20 20 20 20 20 20 20 20 19 18 19 19 18 18 18 19 19 19
25 24 23 22 22 22 21 21 21 21 20 20 20 20 20 20 20 20 20 19 19 19 19 19 19 19 19 20 20 20 19 19 19 19 18 18 18 18 18 18 19 19 19
25 24 24 23 22 22 21 21 21 21 20 20 20 20 20 20 20 20 20 19 19 19 19 19 19 19 19 19 20 20 19 19 19 19 19 18 18 18 18 18 18 19 19
24 24 24 23 23 22 22 21 21 21 21 20 20 20 20 20 20 20 19 19 19 19 19 19 19 19 19 19 19 19 19 19 19 19 19 18 18 18 17 18 18 18 18
24 24 24 24 23 23 22 22 21 21 21 20 20 20 20 20 20 19 19 19 18 18 19 18 19 19 19 19 19 19 19 19 19 19 19 19 18 18 17 18 18 18 18
24 24 24 24 24 23 22 22 22 21 21 21 20 20 20 20 19 19 19 18 18 18 18 18 18 18 18 18 19 18 19 19 18 19 19 19 18 18 17 17 17 18 18
25 24 23 23 23 23 23 22 22 21 20 20 20 20 19 19 19 18 18 18 18 18 18 18 18 18 18 18 18 18 18 18 18 18 19 19 18 18 18 18 17 17 18
24 23 23 23 23 22 22 22 21 21 20 20 20 19 19 19 18 18 18 18 18 18 18 18 18 18 18 18 18 18 18 18 18 18 18 18 18 18 18 18 18 18 18
23 22 22 22 22 22 22 21 21 20 20 20 19 19 18 18 18 18 18 18 18 18 18 18 18 18 18 18 18 18 18 17 18 18 18 18 18 18 18 18 18 18 18
22 22 21 21 21 21 21 21 20 20 20 19 19 19 18 18 18 18 18 18 18 17 17 17 17 17 17 17 17 17 17 17 17 17 18 18 18 18 18 18 17 17 18
21 20 20 20 20 20 20 20 20 19 19 19 19 18 18 18 18 18 18 18 18 17 17 17 17 17 17 17 17 17 17 17 17 17 18 18 18 18 18 18 17 17 17
19 19 18 18 19 19 19 19 19 19 19 19 19 18 18 18 18 18 18 17 17 17 17 17 17 17 16 16 16 16 16 17 17 17 17 18 18 18 18 18 18 17 18
18 18 17 17 17 18 18 19 19 19 19 19 18 18 18 18 18 18 17 17 17 17 17 17 16 16 16 16 16 16 16 16 17 17 17 17 18 18 18 18 18 17 17
18 18 17 16 16 17 17 18 18 19 19 19 19 19 19 19 18 18 17 17 17 16 16 16 16 16 16 15 15 16 16 16 16 17 17 17 17 17 18 18 18 17 17
18 18 17 16 16 16 17 17 18 18 19 19 19 19 19 19 18 18 17 17 16 16 16 16 16 16 16 15 15 15 16 16 16 16 16 17 17 17 17 17 17 17 18
17 17 17 17 17 17 17 18 18 19 19 19 19 19 19 19 18 18 18 17 17 17 17 16 16 16 16 15 15 14 14 15 16 16 16 16 17 17 17 17 17 17 17
16 16 16 16 16 16 17 18 18 19 19 19 19 19 19 19 19 18 18 18 18 18 17 17 17 16 16 16 15 14 13 13 14 16 16 17 17 17 17 17 17 17 17
15 15 15 16 16 17 17 18 18 19 19 19 19 19 19 18 18 18 18 18 18 18 18 17 17 17 16 16 15 14 13 13 13 14 16 16 16 17 17 17 17 17 17
16 16 15 15 16 17 17 18 18 18 18 18 18 18 18 18 18 18 18 18 18 18 18 17 17 17 16 15 15 14 14 14 13 13 14 15 16 17 16 17 17 17 17
16 16 16 16 16 16 16 16 16 17 17 17 17 17 17 17 17 17 17 17 17 17 17 17 17 17 16 15 14 14 14 14 14 13 13 14 15 16 16 17 17 17 17
Wind_Speed
12 15 23 23 23 22 21 21 20 19 18 17 17 17 17 16 16 15 15 15 15 14 13 13 14 13 13 13 13 13 13 13 13 14 14 14 15 14 13 14 14 13 15
17 18 24 24 25 24 22 22 21 20 18 17 16 16 17 17 16 15 15 15 15 14 12 12 13 13 13 12 12 11 11 11 11 11 12 12 12 12 11 13 14 12 14
19 18 23 25 26 25 23 22 21 20 19 18 17 17 17 16 16 15 15 15 15 14 12 11 11 11 11 10 10 9 9 9 8 8 9 8 8 10 11 14 16 14 13
20 18 21 25 25 25 24 23 22 21 20 19 18 17 17 16 15 15 15 15 14 14 12 11 10 10 9 9 9 8 7 7 7 7 6 6 7 9 12 15 15 15 13
15 16 21 26 25 25 24 23 22 22 21 20 19 19 18 17 16 15 15 14 14 14 13 12 11 10 10 9 8 7 6 6 6 6 5 7 8 10 12 14 15 14 14
14 15 21 25 25 24 24 23 22 22 21 20 20 19 18 17 16 16 15 14 14 13 13 12 11 10 10 9 9 8 7 6 6 4 5 7 11 13 14 14 15 14 14
14 13 20 24 24 24 24 23 22 22 21 19 18 17 16 15 14 14 14 13 12 12 11 11 11 11 11 10 10 9 8 8 7 6 6 8 13 18 18 17 16 16 15
18 14 18 24 24 23 23 22 22 21 20 19 18 18 16 15 14 13 13 13 12 12 12 12 12 12 13 13 12 12 11 10 8 7 7 9 15 20 21 20 19 17 16
17 15 13 19 22 23 23 22 21 21 20 19 19 18 18 17 16 15 14 14 14 13 13 13 13 13 13 14 14 14 13 13 11 9 8 8 16 22 22 22 21 20 19
16 16 14 13 15 17 19 21 21 20 20 19 19 18 18 17 16 16 15 15 15 15 15 15 15 15 15 15 15 14 14 14 12 11 10 9 14 23 24 22 22 22 21
15 14 14 13 12 13 14 18 20 20 20 19 18 19 17 14 14 14 15 16 17 17 17 18 18 18 17 16 17 16 14 11 11 11 11 13 14 21 24 24 24 23 22
17 15 13 14 13 12 14 14 13 15 15 16 14 15 14 13 13 13 14 19 20 20 20 20 20 19 17 12 15 16 12 13 12 11 13 16 17 18 24 26 26 25 25
19 17 15 15 14 13 9 8 8 10 10 13 14 14 12 11 11 11 9 12 15 17 15 15 16 13 12 11 10 11 12 13 12 12 14 17 18 20 21 27 29 27 26
16 16 16 16 14 14 9 8 8 7 7 8 13 14 10 6 6 6 6 7 7 8 7 8 6 9 11 13 12 10 11 10 11 11 13 17 18 20 21 25 29 28 27
10 9 13 14 14 12 10 8 9 8 7 8 9 12 12 8 7 6 4 4 5 6 4 4 4 6 7 6 8 7 5 6 8 9 11 15 17 18 21 24 28 28 27
7 5 4 10 10 9 8 7 7 6 5 6 7 11 14 9 5 5 4 4 3 4 4 4 5 5 4 3 4 4 5 6 7 8 10 12 16 19 22 25 27 28 27
8 7 4 3 5 6 6 6 6 5 5 5 5 8 10 9 6 5 4 3 3 4 4 3 3 2 2 2 4 4 5 5 6 8 10 11 13 16 21 24 27 28 27
14 13 11 8 5 2 1 3 3 4 5 5 5 6 9 9 8 5 4 3 3 3 2 2 2 2 2 2 3 4 4 5 6 8 9 11 11 12 15 21 24 26 27
12 12 12 11 7 6 6 4 3 2 4 4 5 5 7 9 9 5 4 3 3 2 2 2 1 2 1 2 3 4 5 5 7 8 8 9 11 13 13 16 20 23 26
10 9 7 7 9 8 7 6 4 3 3 3 5 5 8 7 9 6 4 4 4 2 1 1 1 1 1 2 3 4 5 6 6 7 9 8 9 12 14 15 15 17 23
8 10 6 4 7 8 7 6 4 4 3 4 5 7 8 8 9 6 5 5 4 4 3 3 2 2 0 1 1 3 5 6 6 5 5 5 7 8 10 12 13 13 14
9 6 4 5 7 9 8 5 4 3 3 4 5 6 7 7 8 7 7 5 5 4 3 3 3 2 1 1 2 1 4 5 4 3 2 3 5 5 6 8 10 11 12
12 8 5 3 4 5 6 3 1 1 2 1 2 4 6 7 7 7 9 7 6 5 4 3 2 3 2 0 2 2 0 2 4 4 4 4 4 5 5 5 6 10 13
11 10 8 7 7 7 7 6 4 2 1 1 2 3 5 6 7 7 9 9 7 5 5 4 3 4 4 1 1 2 3 3 2 4 4 4 5 5 6 5 5 6 10
8 7 6 6 7 7 8 9 8 7 5 4 4 4 3 3 4 6 8 8 8 6 6 5 4 4 3 3 3 3 3 3 4 4 6 5 5 5 6 6 6 6 7
5 4 4 5 5 5 6 7 7 7 7 7 7 7 6 4 3 4 6 7 8 7 7 6 6 5 4 4 4 4 4 3 4 4 5 6 6 5 6 6 6 5 5
Wind_Direction
162 165 159 159 159 157 151 143 141 138 133 129 127 126 124 122 121 121 125 130 130 128 127 127 125 123 127 123 121 123 123 123 124 122 120 119 120 124 126 123 117 114 112
159 162 158 159 160 160 155 148 145 143 140 139 138 137 134 132 129 126 127 134 136 133 128 127 129 125 128 129 127 127 126 123 125 124 122 123 124 125 127 135 128 127 121
153 159 157 158 160 161 159 153 150 149 147 148 148 146 143 141 139 137 134 135 139 139 135 132 133 135 134 136 136 135 134 130 128 132 130 127 133 131 124 133 136 132 129
152 156 158 158 160 162 161 158 156 155 155 156 156 154 151 148 147 147 146 145 146 147 149 151 152 152 152 152 152 152 151 150 150 155 157 163 166 152 139 138 142 141 140
150 156 160 160 162 164 164 163 162 162 161 162 162 161 159 158 156 156 157 157 157 157 159 163 166 167 169 171 172 174 179 177 179 184 191 197 192 175 161 152 150 150 150
153 159 163 162 165 167 167 168 168 168 168 169 169 168 167 167 167 167 167 168 167 166 166 169 173 177 180 183 187 193 202 211 210 212 228 225 200 191 181 168 162 161 161
156 161 166 165 167 169 171 172 173 173 174 174 174 174 174 175 177 177 178 178 178 177 178 181 186 191 194 198 202 209 220 231 234 224 234 239 205 195 189 178 173 171 173
161 165 171 170 171 172 174 176 177 178 178 179 179 180 181 183 186 189 190 191 193 194 195 197 202 205 207 209 212 216 224 236 248 237 226 227 208 199 190 183 180 179 182
163 168 175 175 176 177 179 180 182 182 184 185 186 186 187 190 193 197 200 203 205 208 209 210 214 216 215 215 218 222 227 235 245 256 257 231 213 206 195 188 186 187 188
168 173 178 176 177 179 182 186 187 188 190 191 193 193 195 197 200 205 208 213 215 217 219 220 221 224 224 224 226 229 234 240 243 247 255 253 229 212 201 194 194 196 195
176 180 179 177 177 177 180 190 192 194 196 197 199 201 202 205 209 214 218 221 224 225 226 226 226 227 229 232 235 237 241 240 238 241 247 253 243 221 211 203 200 201 202
182 184 183 182 180 178 186 189 192 197 200 200 201 205 204 202 209 217 224 231 232 232 232 232 231 230 230 231 236 240 238 240 240 240 243 250 253 245 227 215 209 206 208
182 180 182 184 184 183 188 181 189 198 201 205 207 207 204 203 212 222 223 237 237 235 232 235 235 229 224 219 221 225 231 238 240 237 240 247 258 261 242 224 215 213 213
178 183 181 184 184 188 188 181 185 193 199 207 213 206 202 206 211 214 215 224 222 221 216 221 223 220 225 226 222 223 230 232 236 236 240 249 258 263 248 228 218 216 216
169 183 188 188 185 187 189 186 187 194 199 206 206 205 204 209 216 215 210 215 215 211 208 211 217 224 228 228 230 231 230 230 235 235 241 250 255 255 244 230 223 219 219
141 147 175 198 189 180 182 183 188 189 192 196 202 205 202 201 204 206 211 215 212 204 203 201 209 217 227 227 236 231 218 219 231 240 242 251 254 248 241 233 228 226 224
50 44 22 248 206 158 153 167 172 173 168 183 189 185 181 182 184 187 196 208 210 199 193 194 210 205 218 219 238 246 244 239 240 246 249 248 249 250 244 236 230 229 231
35 32 20 339 325 1 145 179 177 171 171 181 175 167 170 176 177 172 185 204 202 187 179 192 203 208 219 224 245 256 254 252 247 248 252 251 247 249 247 242 235 232 234
42 33 21 356 325 323 316 293 265 214 188 176 165 168 178 182 180 171 187 204 189 181 201 220 191 192 226 260 263 260 257 252 248 249 245 247 248 245 243 243 240 237 238
89 69 39 344 320 302 303 297 286 267 213 175 172 177 178 181 175 167 170 171 163 152 147 150 154 161 199 242 278 288 274 262 250 242 244 247 246 245 242 241 239 239 239
88 96 112 203 245 257 257 260 255 242 218 191 190 184 180 175 168 163 159 154 151 149 154 148 144 120 199 185 24 318 294 274 262 257 252 255 256 251 242 238 236 234 238
66 88 141 214 238 247 250 245 234 224 218 200 195 196 192 177 169 168 163 164 161 151 139 124 125 128 160 114 121 9 337 333 338 303 283 269 275 274 254 238 230 228 230
45 35 36 27 357 325 300 283 295 14 21 60 221 224 214 190 176 169 171 168 170 163 166 166 151 149 162 68 133 148 182 290 311 303 291 292 301 296 279 259 234 228 226
50 44 35 31 37 27 12 11 19 22 330 314 276 257 247 216 187 177 179 177 175 171 175 194 169 158 154 193 276 190 193 198 258 305 305 299 312 312 302 282 258 239 229
59 57 47 33 32 32 37 34 33 30 13 360 1 355 317 269 226 202 191 182 178 178 181 189 190 188 172 182 200 215 229 223 218 236 288 306 316 297 293 282 264 246 231
49 42 35 36 30 22 33 43 44 34 19 14 8 2 352 338 322 281 225 197 185 181 184 189 193 197 203 212 219 214 212 218 213 222 262 292 298 292 293 280 269 251 227
Height
1511 1514 1517 1519 1520 1522 1523 1524 1525 1527 1528 1529 1530 1531 1532 1534 1535 1536 1537 1539 1540 1542 1542 1543 1544 1545 1546 1547 1548 1549 1550 1550 1551 1552 1552 1553 1553 1553 1553 1553 1554 1555 1556
1508 1512 1516 1518 1519 1521 1523 1524 1526 1527 1528 1529 1530 1532 1533 1534 1536 1537 1538 1539 1541 1542 1543 1544 1544 1545 1546 1547 1548 1549 1550 1551 1552 1553 1554 1554 1555 1555 1555 1555 1555 1556 1557
1508 1511 1515 1517 1519 1521 1523 1524 1526 1527 1528 1529 1530 1532 1534 1535 1536 1538 1538 1539 1541 1542 1543 1544 1545 1546 1547 1548 1549 1550 1551 1552 1553 1554 1554 1555 1556 1556 1556 1556 1556 1556 1558
1507 1510 1514 1517 1519 1520 1522 1524 1525 1526 1528 1529 1531 1532 1534 1535 1537 1538 1539 1540 1541 1542 1543 1544 1545 1546 1547 1548 1549 1550 1552 1553 1554 1554 1555 1555 1556 1557 1557 1557 1557 1558 1558
1508 1510 1513 1516 1518 1520 1521 1523 1524 1526 1527 1529 1530 1532 1533 1535 1536 1537 1538 1539 1540 1541 1542 1543 1545 1546 1547 1548 1549 1550 1551 1552 1553 1554 1555 1555 1556 1557 1558 1558 1558 1558 1559
1507 1510 1512 1514 1516 1518 1520 1522 1523 1525 1526 1528 1530 1531 1533 1534 1535 1536 1537 1538 1539 1540 1541 1542 1543 1544 1545 1546 1548 1549 1550 1551 1552 1553 1554 1554 1555 1556 1558 1559 1559 1559 1559
1507 1509 1511 1513 1515 1517 1518 1520 1522 1523 1525 1527 1528 1530 1532 1533 1534 1536 1536 1537 1538 1539 1540 1541 1542 1543 1544 1545 1546 1547 1548 1550 1551 1552 1552 1553 1554 1555 1556 1558 1559 1559 1560
1505 1507 1510 1512 1514 1516 1517 1519 1521 1522 1524 1526 1527 1529 1530 1532 1533 1534 1535 1536 1537 1538 1539 1539 1540 1541 1542 1543 1544 1545 1546 1548 1549 1550 1550 1551 1552 1553 1555 1556 1557 1558 1559
1504 1506 1508 1510 1512 1514 1516 1518 1520 1521 1523 1524 1526 1527 1528 1530 1531 1532 1534 1534 1535 1536 1536 1537 1538 1539 1540 1541 1542 1543 1544 1545 1546 1548 1549 1549 1550 1551 1553 1554 1555 1556 1557
1503 1504 1506 1508 1510 1512 1514 1516 1518 1519 1521 1523 1524 1525 1526 1528 1529 1530 1532 1533 1533 1534 1534 1535 1536 1537 1538 1538 1540 1541 1542 1543 1544 1545 1546 1547 1548 1549 1550 1552 1553 1554 1555
1501 1502 1503 1505 1508 1510 1512 1514 1515 1517 1519 1520 1522 1523 1524 1525 1526 1528 1529 1530 1530 1531 1532 1532 1533 1534 1535 1536 1537 1538 1539 1539 1541 1542 1543 1544 1545 1546 1547 1549 1551 1551 1552
1496 1499 1501 1503 1505 1507 1509 1511 1512 1514 1516 1518 1519 1520 1521 1523 1524 1525 1525 1526 1527 1528 1529 1529 1530 1531 1532 1532 1533 1534 1535 1536 1537 1538 1539 1540 1541 1543 1544 1545 1547 1548 1549
1492 1496 1499 1501 1503 1505 1506 1509 1511 1513 1514 1515 1516 1518 1519 1520 1521 1522 1522 1523 1523 1525 1525 1526 1526 1527 1527 1529 1530 1530 1531 1533 1534 1535 1535 1536 1537 1538 1539 1540 1542 1544 1545
1490 1494 1497 1499 1501 1503 1505 1507 1509 1510 1512 1513 1514 1515 1516 1516 1517 1518 1519 1519 1519 1520 1521 1522 1523 1523 1524 1525 1525 1526 1528 1529 1530 1531 1532 1532 1533 1533 1534 1536 1538 1539 1541
1493 1496 1498 1499 1500 1502 1504 1506 1507 1509 1510 1511 1512 1512 1513 1513 1514 1515 1516 1516 1516 1516 1517 1518 1519 1520 1520 1521 1522 1523 1524 1525 1526 1527 1527 1528 1529 1529 1529 1531 1533 1535 1536
1492 1494 1497 1499 1499 1500 1501 1504 1506 1507 1508 1509 1509 1510 1510 1511 1511 1512 1512 1512 1512 1512 1513 1514 1514 1515 1516 1517 1518 1518 1520 1520 1522 1522 1522 1523 1523 1524 1525 1526 1528 1530 1531
1495 1494 1496 1497 1497 1497 1499 1502 1504 1505 1506 1507 1507 1508 1509 1509 1509 1509 1509 1508 1508 1508 1509 1510 1511 1511 1512 1513 1513 1514 1514 1515 1516 1516 1517 1517 1517 1518 1519 1520 1522 1524 1525
1494 1494 1492 1493 1493 1495 1498 1501 1503 1504 1504 1506 1506 1506 1507 1507 1507 1507 1506 1505 1505 1505 1505 1506 1507 1507 1508 1508 1509 1509 1510 1510 1510 1511 1511 1512 1512 1512 1513 1514 1516 1517 1519
1488 1488 1486 1487 1489 1492 1497 1499 1500 1501 1503 1504 1504 1505 1505 1506 1505 1504 1503 1503 1503 1502 1502 1503 1503 1503 1504 1504 1504 1505 1505 1505 1504 1505 1505 1506 1507 1507 1508 1508 1510 1511 1513
1483 1483 1481 1485 1484 1489 1493 1496 1498 1499 1501 1502 1502 1503 1503 1503 1503 1502 1501 1501 1501 1500 1499 1499 1499 1499 1500 1500 1500 1500 1500 1499 1499 1499 1500 1501 1501 1501 1502 1503 1504 1505 1506
1482 1481 1482 1488 1488 1491 1493 1495 1497 1498 1499 1500 1501 1501 1501 1501 1501 1500 1499 1499 1498 1497 1496 1496 1495 1495 1496 1496 1496 1495 1495 1494 1493 1494 1495 1496 1496 1496 1496 1497 1498 1500 1501
1485 1485 1483 1488 1490 1492 1494 1496 1498 1498 1498 1499 1500 1499 1499 1499 1499 1498 1498 1497 1497 1495 1493 1492 1491 1491 1492 1492 1492 1491 1491 1491 1490 1491 1491 1492 1492 1492 1492 1492 1493 1494 1496
1489 1490 1487 1490 1493 1495 1496 1497 1496 1496 1497 1497 1497 1498 1498 1497 1497 1496 1496 1496 1495 1493 1491 1490 1488 1488 1488 1489 1489 1490 1490 1489 1488 1486 1487 1488 1488 1487 1488 1488 1488 1489 1490
1493 1493 1493 1493 1493 1494 1495 1494 1493 1494 1494 1494 1494 1495 1495 1495 1495 1494 1494 1494 1493 1491 1490 1488 1486 1485 1485 1485 1486 1486 1488 1487 1487 1483 1482 1483 1483 1483 1483 1483 1483 1484 1485
1497 1497 1497 1496 1494 1494 1493 1492 1492 1491 1491 1490 1490 1490 1491 1491 1491 1491 1491 1491 1490 1489 1488 1487 1485 1483 1483 1482 1482 1483 1484 1484 1484 1483 1478 1477 1477 1478 1478 1478 1478 1479 1479
1499 1499 1498 1497 1496 1494 1492 1491 1490 1489 1488 1487 1486 1486 1486 1486 1485 1485 1485 1486 1486 1485 1485 1484 1483 1481 1480 1480 1480 1480 1480 1480 1479 1478 1476 1473 1472 1472 1473 1473 1473 1474 1474